Simultaneous Nadir Overpasses (SNOs) Predictions

Prediction of SNOs between GOES-17 and LANDSAT-8 Satellite Orbit:

Table of predicted SNOs for the next 14.0 days since TLE Epoch: 1/20/2024
Index Date Time (GOES-17) GOES-17 Lat,Lon LANDSAT-8 Lat,Lon Distance(km) Time Diff (sec)
1 01/20/2024 17:00:36 -0.00,-104.67 -0.64,-101.81 326.37 80
2 01/21/2024 05:21:59 0.00,-104.67 -0.51,-106.99 264.27 80
3 01/23/2024 05:07:06 0.00,-104.67 0.11,-104.03 72.24 80
4 01/25/2024 04:54:53 -0.00,-104.67 0.76,-101.07 409.07 80
5 01/25/2024 17:16:07 0.00,-104.67 0.34,-106.22 177.03 80
6 01/27/2024 17:06:34 0.01,-104.67 -0.27,-103.25 160.71 80
7 01/28/2024 05:27:57 -0.01,-104.68 -0.80,-108.45 428.80 80
8 01/29/2024 16:54:20 0.02,-104.68 -0.90,-100.29 498.87 80
9 01/30/2024 05:15:43 -0.02,-104.68 -0.16,-105.48 90.67 80
10 02/01/2024 05:00:48 -0.02,-104.69 0.44,-102.51 247.67 80
11 02/01/2024 17:22:03 0.02,-104.68 0.64,-107.67 338.92 80
